THOR AGENA D R/B, 2825

Orbit data source: Space-Track

THOR AGENA D R/B, 2825 is space debris in LEO originally from a launch on Wed, 31 May 1967 UTC launched from the Air Force Western Test Range (AFWTR). Debris objects in space refer to the collection of defunct objects orbiting the Earth. Examples of debris include non-operational satellites, rocket bodies, and fragments generated from explosions, collisions, or faulty payload assembly.

Loading next visibility...
Identifier
2825, 1967-053B
Orbit
LEO
Country
Flag of USUS
Related business
Manufacturer
LMSC
Mission
Spacecraft
Bus & Motor
AGENA D, Unknown motor
Mass
600 kg wet, 600 kg dry
Launch date (UTC)
1967-05-31 (59 years ago)
Launch vehicle
Unknown
Launch site
Air Force Western Test Range (AFWTR)
Object type
Payload
Rocket body
Debris
Shape & HBR
Unknown
Radar Cross Section
Large (>1 m²)

Expand to show TLE details & history
Last TLE update: 13 hours ago

TLE from 13 hours ago
0 THOR AGENA D R/B
1  2825U 67053B   26036.61877794  .00000108  00000-0  11454-3 0  9991
2  2825  69.9734 355.9988 0008405 322.9382  37.1143 13.97701071 73713
Epoch: 2026-02-05T14:51Z
TLE epoch observation values (Epoch: 2026-02-05T14:51:02.414Z)
Latitude
Longitude
-2.52967°
Altitude
899.201 km
Speed
7.405 km/s
True Right ascension
23h 43m 59s
True Declination
0° 00' 00"
Sunlit
Object was in daylight at epoch
Visualization orbit readout
Latitude
Unknown
Longitude
Unknown
Altitude
Unknown
Speed
Unknown
Apparent Right ascension
Unknown
Apparent Declination
Unknown
Sunlit
N/A
Visualization observer readout
Local Sidereal Time
05:35:15
Azimuth
Unknown
Elevation
Unknown
Doppler factor
Unknown
Orbital elements
Apogee altitude
905.928 km
Perigee altitude
893.694 km
Semi-major axis
7,277.948 km
Eccentricity
0.00084
Inclination
69.9734°
RAAN
355.9988°
Arg. of periapsis
322.9382°
True anomaly
37.17247°
Mean anomaly
37.1143°
Eccentric anomaly
37.14338°
Mean motion
3.49566 °/min
Orbital period
102.98 mins
BSTAR
0.00011454
Loading maneuver chart data...
Computing Atmospheric mass density...
Loading historical data...
Loading historical data...
Loading historical data...
Loading historical data...
Loading historical data...
Loading historical data...
Loading historical data...

Documentation

Showing up to 5 results
|